Flag for Canada Weather past 2 weeks in Calgary, Alberta, Canada

39 °F


Feels Like: 33 °F
Forecast: 29 / 54 °F
Wind: 9 mph from South

Location: Calgary International

Current Time: Oct 4, 2015 at 6:15:58 PM

Latest Report: Oct 4, 2015 at 5:00 PM

Visibility: 15 mi

Pressure: 30.19 "Hg (26.48 "Hg at 1063m altitude)

Humidity: 70%

Dew point: 30 °F

Location of CalgaryLocation

Historic Weather in Calgary — Graph


Calgary temperature yesterday

Maximum temperature yesterday: 37 °F (at 3:00 PM)
Minimum temperature yesterday: 34 °F (at 7:49 AM)
Average temperature yesterday: 36 °F

Past Weeks' High & Low Weather Summary

High70 °F (Sep 24, 6:00 PM)93% (Sep 21, 12:00 AM)30.48 "Hg (Sep 21, 12:00 AM)
Low34 °F (Oct 3, 7:49 AM)25% (Sep 27, 2:00 PM)29.48 "Hg (Sep 20, 6:00 PM)
Average50 °F60%30.04 "Hg
* Reported Sep 19 5:00 PM — Oct 4 5:00 PM, Calgary, Weather by CustomWeather, © 2015

Note: Actual official high and low records may vary slightly from our data, if they occured in-between our weather recording intervals... More about our weather records


Calgary weather history for previous 24 hours

Time TempWeatherWind HumidityBarometerVisibility
5:00 PM
Sun, Oct 4
39 °FOvercast.9 mph70%30.19 "Hg15 mi
4:00 PM39 °FOvercast.9 mph70%30.19 "Hg15 mi
3:00 PM39 °FOvercast.8 mph65%30.22 "Hg15 mi
2:00 PM39 °FOvercast.8 mph70%30.24 "Hg15 mi
1:00 PM37 °FOvercast.8 mph75%30.26 "Hg10 mi
12:00 PM37 °FMore clouds than sun.5 mph75%30.29 "Hg15 mi
11:00 AM36 °FBroken clouds.2 mph75%30.32 "Hg10 mi
10:00 AM34 °FPartly sunny.2 mph81%30.34 "Hg15 mi
9:00 AM34 °FBroken clouds.3 mph81%30.34 "Hg15 mi
8:00 AM34 °FMostly cloudy.5 mph87%30.36 "Hg10 mi
7:00 AM34 °FPassing clouds.6 mph87%30.37 "Hg10 mi
6:00 AM34 °FPartly cloudy.6 mph81%30.39 "Hg10 mi
5:00 AM34 °FPartly cloudy.7 mph81%30.39 "Hg10 mi
4:00 AM34 °FOvercast.6 mph87%30.41 "Hg15 mi
3:00 AM34 °FLow clouds.8 mph81%30.41 "Hg10 mi
2:50 AM34 °FLow clouds.6 mph81%30.42 "Hg10 mi
2:00 AM34 °FMostly cloudy.9 mph87%30.43 "Hg15 mi
1:00 AM34 °FMostly cloudy.14 mph87%30.45 "Hg15 mi
12:00 AM36 °FMostly cloudy.10 mph81%30.46 "Hg15 mi
11:00 PM
Sat, Oct 3
36 °FMostly cloudy.9 mph87%30.47 "Hg15 mi
10:00 PM36 °FLight rain. Mostly cloudy.12 mph87%30.48 "Hg15 mi
9:00 PM36 °FOvercast.12 mph87%30.47 "Hg15 mi
8:00 PM36 °FPartly sunny.15 mph87%30.46 "Hg15 mi
7:00 PM37 °FPartly sunny.16 mph81%30.45 "Hg15 mi
6:00 PM37 °FMostly cloudy.15 mph81%30.44 "Hg15 mi
Weather by CustomWeather, © 2015

See weather overviewHow to use our weather pages